Location: Mahannah Oil Field
(37.4664°N, 96.6003°W)
Time: 02:30:11
(UTC+00:00)

X-37B - Pass Details

Date: 01 December 2020
Orbit: 383 x 391 km, 45.1° (Epoch: 22 January)

Event Time Altitude Azimuth Distance (km) Brightness Sun altitude
Rises 23:26:11 0° 260° (W) 2,251 6.4 -4.0°
Reaches altitude 10° 23:28:20 10° 269° (W) 1,401 4.7 -4.4°
Maximum altitude 23:31:18 38° 340° (NNW) 603 1.5 -4.9°
Drops below altitude 10° 23:34:18 10° 51° (NE) 1,409 2.8 -5.5°
Enters shadow 23:34:57 - 54° (NE) 1,660 3.1 -5.6°
